EST,Max TemperatureF,Mean TemperatureF,Min TemperatureF,Max Dew PointF,MeanDew PointF,Min DewpointF,Max Humidity, Mean Humidity, Min Humidity, Max Sea Level PressureIn, Mean Sea Level PressureIn, Min Sea Level PressureIn, Max VisibilityMiles, Mean VisibilityMiles, Min VisibilityMiles, Max Wind SpeedMPH, Mean Wind SpeedMPH, Max Gust SpeedMPH,PrecipitationIn, CloudCover, Events, WindDirDegrees
2014-2-1,33,28,24,32,27,23,100,95,93,30.08,29.92,29.77,5,2,0,9,3,,0.00,7,Rain-Snow,63
2014-2-2,24,17,10,23,17,9,100,83,68,30.26,30.14,29.98,10,10,5,13,6,17,0.00,6,,312
2014-2-3,19,10,0,14,6,-6,100,85,68,30.36,30.30,30.23,10,9,5,8,2,,0.00,0,,354
2014-2-4,21,12,3,16,8,1,93,80,58,30.40,30.29,30.05,10,7,2,20,2,24,0.00,3,Snow,71
2014-2-5,21,16,10,18,15,7,93,85,68,30.36,30.09,29.89,10,5,0,18,12,25,0.00,8,Snow,354
2014-2-6,12,2,-7,10,2,-13,92,82,67,30.36,30.32,30.29,10,8,2,16,5,20,0.00,6,Snow,225
2014-2-7,10,0,-11,-2,-7,-15,92,76,56,30.34,30.31,30.29,10,10,5,17,7,20,0.00,2,Snow,215
2014-2-8,14,8,1,10,4,-4,92,82,62,30.30,30.22,30.11,10,7,0,6,3,,0.00,7,Snow,187
2014-2-9,19,14,8,12,9,5,93,84,68,30.18,30.08,30.03,10,7,1,13,3,18,0.00,7,Snow,269
2014-2-10,17,10,3,9,5,1,92,79,67,30.37,30.27,30.18,10,8,0,13,6,,0.00,6,Snow,274
2014-2-11,12,5,-2,3,0,-6,92,79,62,30.47,30.42,30.36,10,9,2,6,3,,0.00,3,Snow,215
2014-2-12,19,7,-5,9,1,-8,92,74,54,30.39,30.21,30.02,10,8,0,9,3,,0.00,3,Snow,156
2014-2-13,28,16,5,21,8,0,85,64,47,30.02,29.78,29.46,10,10,10,15,5,17,0.00,4,,161
2014-2-14,28,22,15,23,17,14,100,83,74,29.82,29.64,29.45,10,8,2,20,11,28,0.00,7,Snow,280
2014-2-15,21,14,8,14,10,7,93,80,68,30.04,29.97,29.82,10,9,3,10,5,,0.00,3,Snow,259
2014-2-16,26,20,14,19,15,10,100,81,69,30.27,30.06,29.88,10,7,2,14,4,17,0.00,5,Snow,3
2014-2-17,24,18,12,21,12,7,100,84,68,30.30,30.00,29.63,10,8,0,24,10,31,0.00,4,Snow,121
2014-2-18,42,33,24,28,24,19,86,73,53,29.99,29.82,29.66,10,8,4,20,13,25,0.00,3,Snow,217
2014-2-19,41,36,30,32,29,27,93,78,57,30.02,29.83,29.60,10,9,3,12,8,20,0.00,1,Snow,240
2014-2-20,46,38,30,46,34,27,100,91,70,30.02,29.66,29.35,10,5,1,26,10,34,0.00,6,Rain-Snow,128
2014-2-21,35,32,28,30,24,14,87,72,51,29.79,29.60,29.44,10,10,7,38,23,46,0.00,6,Snow,232
2014-2-22,35,29,23,28,19,9,93,65,44,30.00,29.92,29.78,10,10,7,17,11,21,0.00,3,Snow,234
2014-2-23,28,24,19,21,14,9,80,68,54,30.11,30.07,29.99,10,10,10,15,7,21,0.00,0,,273
2014-2-24,23,19,15,12,10,9,79,67,54,30.18,30.14,30.09,10,10,5,18,11,25,0.00,5,Snow,273
2014-2-25,19,16,14,16,12,7,93,77,63,30.14,30.09,30.02,10,8,1,16,7,26,0.00,7,Snow,271
2014-2-26,12,9,6,9,2,-2,85,71,57,30.11,29.96,29.62,10,9,2,23,11,34,0.00,5,Snow,255
2014-2-27,15,6,-2,12,0,-8,86,71,52,30.17,29.89,29.54,10,7,1,25,14,36,0.00,4,Snow,303
2014-2-28,21,8,-5,9,-1,-9,92,64,49,30.24,30.14,30.01,10,10,10,16,6,17,0.00,1,,136